EA5LR-10 Weather Reports


Display with metric or nautical units.
time (UTC)temp
F
wind
direction
speed
MPH
gust
MPH
rain 1hr
in
rain 24hr
in
rain mn
in
humidity
%
barometer
mb
20260507002421 65 98 4.0 5.0 0.00 0.00 8.26 82 1012.5
20260507001920 65 40 2.0 3.0 0.00 0.00 8.26 82 1012.4
20260507001420 65 74 4.0 6.0 0.00 0.00 8.26 82 1012.4
20260507000920 65 75 4.0 7.0 0.00 0.00 8.26 82 1012.6
20260507000422 65 63 2.0 3.0 0.00 0.00 8.26 82 1012.5
20260506235920 65 77 1.0 1.0 0.00 0.00 8.26 82 1012.6
20260506235420 65 58 3.0 6.0 0.00 0.00 8.26 82 1013.0
20260506234920 65 73 1.0 1.0 0.00 0.00 8.26 82 1012.8
20260506234421 65 64 3.0 3.0 0.00 0.00 8.26 82 1013.0
20260506233420 65 70 0.0 0.0 0.00 0.00 8.26 82 1013.1
20260506232920 65 100 3.0 3.0 0.00 0.00 8.26 82 1012.9
20260506232420 65 67 1.0 2.0 0.00 0.00 8.26 82 1012.9
20260506231920 65 102 1.0 1.0 0.00 0.00 8.26 81 1013.1
20260506231420 65 95 3.0 3.0 0.00 0.00 8.26 81 1013.1
20260506230920 65 64 1.0 2.0 0.00 0.00 8.26 81 1013.0
20260506230420 65 109 3.0 5.0 0.00 0.00 8.26 81 1013.0
20260506225920 65 80 4.0 5.0 0.00 0.00 8.26 82 1013.2
20260506225420 65 87 3.0 3.0 0.00 0.00 8.26 82 1013.1
20260506224920 65 79 3.0 3.0 0.00 0.00 8.26 82 1013.1
20260506224420 65 95 1.0 2.0 0.00 0.00 8.26 82 1013.1
20260506223923 65 83 1.0 2.0 0.00 0.00 8.26 82 1013.2
20260506223420 65 74 1.0 2.0 0.00 0.00 8.26 81 1013.0
20260506222920 65 107 0.0 0.0 0.00 0.00 8.26 81 1013.0
20260506222420 65 62 1.0 1.0 0.00 0.00 8.26 82 1012.9
20260506221920 65 65 3.0 3.0 0.00 0.00 8.26 82 1012.9
20260506221420 65 97 3.0 5.0 0.00 0.00 8.26 81 1013.2
20260506220920 65 81 2.0 2.0 0.00 0.00 8.26 81 1013.2
20260506220420 65 116 1.0 1.0 0.00 0.00 8.26 82 1013.2
20260506215920 65 89 2.0 3.0 0.00 0.00 8.26 82 1013.1
20260506215420 65 119 2.0 3.0 0.00 0.00 8.26 82 1013.2
20260506214920 65 112 3.0 5.0 0.00 0.00 8.26 83 1013.5
20260506214420 65 113 2.0 2.0 0.00 0.00 8.26 82 1013.5
20260506213920 65 99 3.0 3.0 0.00 0.00 8.26 82 1013.4
20260506213420 65 85 3.0 3.0 0.00 0.00 8.26 82 1013.3
20260506212923 66 77 5.0 7.0 0.00 0.00 8.26 82 1013.5
20260506212420 66 88 1.0 2.0 0.00 0.00 8.26 82 1013.3
20260506211920 66 89 2.0 2.0 0.00 0.00 8.26 82 1013.4
20260506211420 66 124 0.0 1.0 0.00 0.00 8.26 81 1013.6
20260506210920 65 104 2.0 2.0 0.00 0.00 8.26 82 1013.6
20260506210421 66 92 2.0 2.0 0.00 0.00 8.26 82 1013.6
20260506205920 66 80 2.0 3.0 0.00 0.00 8.26 83 1013.5
20260506205420 65 117 5.0 7.0 0.00 0.00 8.26 83 1013.5
20260506204923 65 83 2.0 2.0 0.00 0.00 8.26 83 1013.3
20260506204421 65 83 2.0 2.0 0.00 0.00 8.26 84 1013.4
20260506203920 66 93 3.0 5.0 0.00 0.00 8.26 84 1013.3
20260506203420 66 130 3.0 3.0 0.00 0.00 8.26 84 1013.3
20260506202920 66 83 5.0 6.0 0.00 0.00 8.26 84 1013.3
20260506202420 66 92 1.0 1.0 0.00 0.00 8.26 84 1013.3
20260506201923 66 120 3.0 3.0 0.00 0.00 8.26 84 1013.1
20260506201420 66 115 4.0 6.0 0.00 0.00 8.26 84 1013.0
20260506200920 66 108 4.0 6.0 0.00 0.00 8.26 84 1013.0
20260506200420 66 84 4.0 6.0 0.00 0.00 8.26 84 1012.9
20260506195920 66 99 3.0 5.0 0.00 0.00 8.26 84 1012.8
20260506195420 66 96 2.0 2.0 0.00 0.00 8.26 84 1012.7
20260506194920 66 109 4.0 5.0 0.00 0.00 8.26 84 1012.6
20260506194420 66 79 3.0 6.0 0.00 0.00 8.26 84 1012.5
20260506193920 66 87 2.0 2.0 0.00 0.00 8.26 83 1012.3
20260506193420 66 74 1.0 2.0 0.00 0.00 8.26 83 1012.5
20260506192920 66 100 1.0 1.0 0.00 0.00 8.26 84 1012.5
20260506192420 66 68 2.0 3.0 0.00 0.00 8.26 84 1012.4
20260506191920 66 83 3.0 3.0 0.00 0.00 8.26 84 1012.3
20260506191421 66 66 5.0 6.0 0.00 0.00 8.26 84 1012.3
20260506190920 66 89 6.0 8.0 0.00 0.00 8.26 84 1012.3
20260506190420 66 88 5.0 6.0 0.00 0.00 8.26 83 1012.2
20260506185920 66 60 1.0 1.0 0.00 0.00 8.26 82 1012.2
20260506185420 67 85 2.0 2.0 0.00 0.00 8.26 82 1012.3
20260506184920 66 66 5.0 6.0 0.00 0.00 8.26 81 1012.0
20260506184420 66 121 7.0 9.0 0.00 0.00 8.26 80 1012.2
20260506183920 66 98 6.0 8.0 0.00 0.00 8.26 80 1012.0
20260506183420 66 67 6.0 7.0 0.00 0.00 8.26 80 1012.0
20260506182920 66 124 1.0 2.0 0.00 0.00 8.26 80 1012.0
20260506182420 66 93 9.0 10.0 0.00 0.00 8.26 80 1011.9
20260506181920 66 88 6.0 7.0 0.00 0.00 8.26 81 1011.9
20260506181420 67 95 7.0 8.0 0.00 0.00 8.26 81 1011.9
20260506180920 66 85 2.0 2.0 0.00 0.00 8.26 82 1011.9
20260506180420 67 116 5.0 6.0 0.00 0.00 8.26 82 1012.0
20260506175920 67 63 6.0 8.0 0.00 0.00 8.26 81 1012.0
20260506175420 67 92 5.0 7.0 0.00 0.00 8.26 81 1011.8